Regional Weather Roundup
Issued by NWS Upton, NY

Current Version | Previous Version | Text Only | Print | Product List | Glossary Off
Versions: 1 2 3 4 5 6 7 8 9 10 11 12 13 14 15 16 17 18 19 20 21 22 23 24 25 26 27 28 29 30 31 32 33 34 35 36 37 38 39 40 41 42 43 44 45 46 47 48 49 50
000 ASUS41 KOKX 211305 RWROKX Regional Weather Roundup National Weather Service New York NY 900 AM EDT SAT JUL 21 2018 Note: "FAIR" indicates few or no clouds below 12,000 feet with no significant weather and/or obstructions to visibility. NYZ071-072-176-178-NJZ106-104-211400- New York City Metro Area CITY SKY/WX TMP DP RH WIND PRES REMARKS Central Park FAIR 72 58 61 CALM 30.12R Bronx Bot Gard N/A 72 57 60 NE6 30.10 Bronx Lehman C N/A 72 57 60 E10G22 N/A LaGuardia Arpt PTSUNNY 74 57 55 E14 30.09R Queens College N/A 72 57 60 E12 N/A Kennedy Intl PTSUNNY 74 56 53 E13 30.09S Breezy Point N/A 70 N/A N/A E13G20 N/A Brooklyn Coll N/A 72 55 56 E13 N/A Staten Island N/A 72 57 60 E8 N/A Newark/Liberty PTSUNNY 73 58 59 E13G18 30.08R Teterboro FAIR 73 57 57 E13 30.08R $$ NYZ177-179-078>081-211400- Long Island New York CITY SKY/WX TMP DP RH WIND PRES REMARKS Jones Beach N/A 70 N/A N/A E14G21 N/A Wantagh N/A 72 55 56 E12 N/A Hempstead N/A 72 57 60 SE6 30.12 Matinecock Pt N/A 70 N/A N/A E14 N/A Farmingdale FAIR 72 56 57 SE14 30.09F MacArthur/ISP FAIR 72 56 57 E12 30.10F Stony Brook N/A 70 55 60 SE6 N/A Shirley FAIR 71 58 63 VRB6 30.12R Mt Sinai Harb N/A N/A N/A N/A E8 N/A Westhampton FAIR 71 56 58 E10G17 30.13S East Hampton FAIR 70 55 58 E12 30.13S Southold N/A 72 54 53 E7 N/A Montauk N/A 71 59 65 E8 30.16R $$ NYZ052-065-067-211400- Hudson Valley CITY SKY/WX TMP DP RH WIND PRES REMARKS White Plains FAIR 70 58 65 SE14 30.11R Larchmont Harb N/A 70 N/A N/A E14 N/A Croton On Huds N/A 70 N/A N/A SE6G13 N/A Somers N/A N/A N/A N/A E8 N/A Brewster N/A 68 59 73 SE6 N/A Newburgh MOSUNNY 70 63 78 E12 30.12S Montgomery FAIR 70 63 78 VRB6 30.11R Otisville N/A 66 61 82 NE3 N/A Warwick N/A N/A N/A N/A SE8 N/A Suffern N/A N/A N/A N/A S2 N/A Poughkeepsie FAIR 70 61 73 E7 30.10S Albany PTSUNNY 72 58 61 VRB6 30.13R $$ NJZ001-105-106-008-010-013-015-019>022-104-211400- New Jersey CITY SKY/WX TMP DP RH WIND PRES REMARKS Newark/Liberty PTSUNNY 73 58 59 E13G18 30.08R Teterboro FAIR 73 57 57 E13 30.08R Caldwell PTSUNNY 72 59 63 SE14 30.09S Somerville FAIR 74 62 66 E7 30.06S Linden FAIR 73 56 56 SE9G16 30.08S Perth Amboy N/A 72 N/A N/A E16 N/A Sussex PTSUNNY 70 62 76 N6 30.10S Andover N/A 71 60 68 CALM 30.09S Trenton FAIR 71 61 70 E10 30.05F Millville PTSUNNY 72 65 78 E12 30.02R Atlantic City PTSUNNY 76 66 71 E17G23 30.03R Wrightstown SUNNY 73 61 64 E10 30.02F Toms River FAIR 73 61 65 E9 30.06S Belmar FAIR 73 60 63 E15G22 30.08 $$ PAZ047>061-062-071-211400- Eastern Pennsylvania CITY SKY/WX TMP DP RH WIND PRES REMARKS Philadelphia PTSUNNY 73 59 61 E14 30.04F Allentown FAIR 73 58 59 E12 30.07S Scranton FAIR 69 57 65 MISG 30.08R $$ CTZ002-004>006-009-010-012-RIZ004-006-007-MAZ004-011-015-211400- Southern New England In CT CITY SKY/WX TMP DP RH WIND PRES REMARKS Bradley Intl PTSUNNY 70 58 65 VRB5 30.15R Hartford FAIR 69 58 67 VRB5 30.14R Danbury FAIR 68 60 75 E9 30.13F Wtrbury/Oxford FAIR 67 58 72 SE12 30.15R Norwalk Harbor N/A 70 N/A N/A E17 N/A Bridgeport FAIR 72 56 57 E15 30.12R Meriden FAIR 69 54 58 SE9 30.14R New Haven FAIR 72 58 61 E10 30.13S Chester FAIR 70 57 64 VRB6 30.15S Groton FAIR 70 58 65 E12 30.15R Willimantic FAIR 68 57 68 S5 30.17R In RI CITY SKY/WX TMP DP RH WIND PRES REMARKS Providence FAIR 71 53 52 E6 30.17S Block Island FAIR 69 59 70 E10 30.16R Westerly FAIR 71 59 65 E10 30.16R In MA CITY SKY/WX TMP DP RH WIND PRES REMARKS Boston FAIR 69 56 62 SE6 30.18R Worcester SUNNY 66 50 55 E6 30.18S Westfield CLOUDY 68 61 78 CALM 30.16R Provincetown PTSUNNY 69 63 81 SE7 30.17S Nantucket FOG 59 59 100 E9 30.18R VSB 3/4 $$ ANZ330-335-338-340-345-350-353-355-211400- Coastal Marine Observations STATION/POSITION TIME SKY/WX TEMP WIND PRES VSBY WAVE AIR SEA DIR/SP/G HT/PER (UTC) (F) (DEG/KT/KT) (MB) (MI) (FT/S) NY Harb Entrance 1250 71 74 100/ 14/ 17 1018.4 3/ 4 20 S Fire Island 1250 71 74 100/ 14/ 16 1018.6 3/ 7 Great South Bay 1200 71 78 110/ 12/ 16 N/A 23 SSW Montauk P 1250 69 72 100/ 12/ 14 1020.5 3/ 8 15 E Barnegat Li 1230 75 N/A 3/ 7 Hudson Canyon 1250 72 100/ 16/ 17 1017.3 3/ 8 Kings Point 1242 72 69 100/ 3/ 7 1019.8 Execution Rocks NOT AVBL Western LI Sound 1150 70 110/ 12/ 14 N/A 1 Central LI Sound 1230 69 100/ 12/ 14 N/A 1 Robbins Reef 1242 71 100/ 13/ 16 1019.2 $$ >>>>>>>>>>>>>>>>>>>>>>>>>>>> KEY <<<<<<<<<<<<<<<<<<<<<<<<<<< > < > SKY/WX - Sky Condition/Present Weather < > TMP - Temperature in Fahrenheit < > DP - Dew Point in Fahrenheit < > RH - Relative Humidity in Percent < > WIND - Direction (from) and Speed in MPH < > PRES - Mean Sea Level Pressure (inches of Hg) < > WCI - Wind Chill Index < > VSB - Visibility in Miles < > HX - Heat Index < > TC - Temperature in Celsius < > VRB - Varibale Wind Direction < > < >>>>>>>>>>>>>>>>>>>>>>>>>>>> KEY <<<<<<<<<<<<<<<<<<<<<<<<<<<

USA.gov is the U.S. government's official web portal to all federal, state and local government web resources and services.